TimePDT,TemperatureF,Dew PointF,Humidity,Sea Level PressureIn,VisibilityMPH,Wind Direction,Wind SpeedMPH,Gust SpeedMPH,PrecipitationIn,Events,Conditions,WindDirDegrees,DateUTC
12:56 AM,46.0,42.1,86,30.13,10.0,Calm,Calm,-,N/A,,Clear,0,2013-09-07 07:56:00
1:56 AM,45.0,42.1,90,30.12,10.0,SSE,4.6,-,N/A,,Clear,160,2013-09-07 08:56:00
2:56 AM,45.0,42.1,90,30.11,10.0,SSE,3.5,-,N/A,,Clear,160,2013-09-07 09:56:00
3:56 AM,44.1,41.0,89,30.11,10.0,Calm,Calm,-,N/A,,Clear,0,2013-09-07 10:56:00
4:56 AM,43.0,41.0,93,30.11,10.0,SSE,4.6,-,N/A,,Clear,160,2013-09-07 11:56:00
5:56 AM,39.9,37.9,93,30.11,10.0,ESE,3.5,-,N/A,,Clear,120,2013-09-07 12:56:00
6:56 AM,41.0,39.0,93,30.13,10.0,SSE,3.5,-,N/A,,Clear,150,2013-09-07 13:56:00
7:56 AM,48.9,43.0,80,30.11,10.0,SE,3.5,-,N/A,,Clear,130,2013-09-07 14:56:00
8:56 AM,54.0,45.0,72,30.10,10.0,East,3.5,-,N/A,,Clear,100,2013-09-07 15:56:00
9:56 AM,60.1,45.0,57,30.08,10.0,SE,6.9,-,N/A,,Clear,130,2013-09-07 16:56:00
10:56 AM,64.9,46.0,50,30.05,10.0,Calm,Calm,-,N/A,,Clear,0,2013-09-07 17:56:00
11:56 AM,71.1,45.0,39,30.03,10.0,Variable,4.6,-,N/A,,Clear,0,2013-09-07 18:56:00
12:56 PM,75.0,46.9,37,30.01,10.0,NNW,9.2,-,N/A,,Clear,340,2013-09-07 19:56:00
1:56 PM,77.0,45.0,32,29.99,10.0,NNW,9.2,-,N/A,,Clear,330,2013-09-07 20:56:00
2:56 PM,79.0,44.1,29,29.97,10.0,NNW,12.7,-,N/A,,Clear,340,2013-09-07 21:56:00
3:56 PM,80.1,43.0,27,29.96,10.0,North,12.7,-,N/A,,Clear,360,2013-09-07 22:56:00
4:56 PM,79.0,44.1,29,29.96,10.0,NNW,12.7,-,N/A,,Clear,340,2013-09-07 23:56:00
5:56 PM,78.1,45.0,31,29.97,10.0,NNW,12.7,-,N/A,,Clear,340,2013-09-08 00:56:00
6:56 PM,73.9,46.0,37,29.98,10.0,North,9.2,-,N/A,,Clear,350,2013-09-08 01:56:00
7:56 PM,69.1,46.9,45,29.99,10.0,NNW,5.8,-,N/A,,Clear,340,2013-09-08 02:56:00
8:56 PM,64.9,46.9,52,30.01,10.0,NNW,8.1,-,N/A,,Clear,330,2013-09-08 03:56:00
9:56 PM,64.0,48.0,56,30.02,10.0,NW,6.9,-,N/A,,Clear,310,2013-09-08 04:56:00
10:56 PM,62.1,48.9,62,30.02,10.0,NW,9.2,-,N/A,,Clear,320,2013-09-08 05:56:00
11:56 PM,60.1,48.9,67,30.02,10.0,WNW,6.9,-,N/A,,Clear,290,2013-09-08 06:56:00